Location: Champignolles
(47.0543°N, 4.5663°E)
Time: 08:01:41
(UTC+00:00)

Cosmos 923 Rocket - Pass Details

Date: 21 April 2021
Orbit: 759 x 785 km, 74.0° (Epoch: 13 May)

Event Time Altitude Azimuth Distance (km) Brightness Sun altitude
Rises 01:04:33 0° 340° (NNW) 3,231 7.9 -28.1°
Reaches altitude 10° 01:06:59 10° 345° (NNW) 2,303 7.1 -28.0°
Maximum altitude 01:12:06 55° 64° (ENE) 917 4.5 -27.6°
Enters shadow 01:13:15 45° 107° (ESE) 1,031 4.6 -27.5°
